Year,Month,Day,Hour,Minute,Value (Times are PST for windspeed in km/hr)
2017,10,18,00,00,0.00
2017,10,18,00,01,0.00
2017,10,18,00,02,0.00
2017,10,18,00,03,0.00
2017,10,18,00,04,0.00
2017,10,18,00,05,0.00
2017,10,18,00,06,0.00
2017,10,18,00,07,0.00
2017,10,18,00,08,0.00
2017,10,18,00,09,0.00
2017,10,18,00,10,0.10
2017,10,18,00,11,1.00
2017,10,18,00,12,0.50
2017,10,18,00,13,0.60
2017,10,18,00,14,1.50
2017,10,18,00,15,2.50
2017,10,18,00,16,2.60
2017,10,18,00,17,3.10
2017,10,18,00,18,1.60
2017,10,18,00,19,3.00
2017,10,18,00,20,2.40
2017,10,18,00,21,0.20
2017,10,18,00,22,0.00
2017,10,18,00,23,0.00
2017,10,18,00,24,0.00
2017,10,18,00,25,0.00
2017,10,18,00,26,0.00
2017,10,18,00,27,1.60
2017,10,18,00,28,0.60
2017,10,18,00,29,2.30
2017,10,18,00,30,2.30
2017,10,18,00,31,2.90
2017,10,18,00,32,2.30
2017,10,18,00,33,2.30
2017,10,18,00,34,2.20
2017,10,18,00,35,1.00
2017,10,18,00,36,0.00
2017,10,18,00,37,0.00
2017,10,18,00,38,1.40
2017,10,18,00,39,1.40
2017,10,18,00,40,0.10
2017,10,18,00,41,0.00
2017,10,18,00,42,2.60
2017,10,18,00,43,2.10
2017,10,18,00,44,1.20
2017,10,18,00,45,2.30
2017,10,18,00,46,0.80
2017,10,18,00,47,1.10
2017,10,18,00,48,0.00
2017,10,18,00,49,0.10
2017,10,18,00,50,0.00
2017,10,18,00,51,0.00
2017,10,18,00,52,0.00
2017,10,18,00,53,0.00
2017,10,18,00,54,0.00
2017,10,18,00,55,0.00
2017,10,18,00,56,0.00
2017,10,18,00,57,0.00
2017,10,18,00,58,0.00
2017,10,18,00,59,0.00
2017,10,18,01,00,0.00
2017,10,18,01,01,0.00
2017,10,18,01,02,0.00
2017,10,18,01,03,0.70
2017,10,18,01,04,0.30
2017,10,18,01,05,0.00
2017,10,18,01,06,0.00
2017,10,18,01,07,0.00
2017,10,18,01,08,0.00
2017,10,18,01,09,0.00
2017,10,18,01,10,1.50
2017,10,18,01,11,0.00
2017,10,18,01,12,1.20
2017,10,18,01,13,0.00
2017,10,18,01,14,0.60
2017,10,18,01,15,0.20
2017,10,18,01,16,0.00
2017,10,18,01,17,0.00
2017,10,18,01,18,0.00
2017,10,18,01,19,0.00
2017,10,18,01,20,1.20
2017,10,18,01,21,1.90
2017,10,18,01,22,0.10
2017,10,18,01,23,0.00
2017,10,18,01,24,0.10
2017,10,18,01,25,1.60
2017,10,18,01,26,2.40
2017,10,18,01,27,0.10
2017,10,18,01,28,2.90
2017,10,18,01,29,2.30
2017,10,18,01,30,2.90
2017,10,18,01,31,2.90
2017,10,18,01,32,3.10
2017,10,18,01,33,2.80
2017,10,18,01,34,1.70
2017,10,18,01,35,0.10
2017,10,18,01,36,0.00
2017,10,18,01,37,1.40
2017,10,18,01,38,2.50
2017,10,18,01,39,1.80
2017,10,18,01,40,1.80
2017,10,18,01,41,0.00
2017,10,18,01,42,0.10
2017,10,18,01,43,1.40
2017,10,18,01,44,1.50
2017,10,18,01,45,0.10
2017,10,18,01,46,2.00
2017,10,18,01,47,2.20
2017,10,18,01,48,1.70
2017,10,18,01,49,1.50
2017,10,18,01,50,1.40
2017,10,18,01,51,0.80
2017,10,18,01,52,1.00
2017,10,18,01,53,1.20
2017,10,18,01,54,0.30
2017,10,18,01,55,2.70
2017,10,18,01,56,1.00
2017,10,18,01,57,2.80
2017,10,18,01,58,2.30
2017,10,18,01,59,2.60
2017,10,18,02,00,0.30
2017,10,18,02,01,0.00
2017,10,18,02,02,0.00
2017,10,18,02,03,0.30
2017,10,18,02,04,1.20
2017,10,18,02,05,1.80
2017,10,18,02,06,2.10
2017,10,18,02,07,1.70
2017,10,18,02,08,2.10
2017,10,18,02,09,0.00
2017,10,18,02,10,0.00
2017,10,18,02,11,0.00
2017,10,18,02,12,0.00
2017,10,18,02,13,0.00
2017,10,18,02,14,1.50
2017,10,18,02,15,1.80
2017,10,18,02,16,1.60
2017,10,18,02,17,0.00
2017,10,18,02,18,0.00
2017,10,18,02,19,0.00
2017,10,18,02,20,0.00
2017,10,18,02,21,0.00
2017,10,18,02,22,0.00
2017,10,18,02,23,0.00
2017,10,18,02,24,0.00
2017,10,18,02,25,0.40
2017,10,18,02,26,2.00
2017,10,18,02,27,1.80
2017,10,18,02,28,2.20
2017,10,18,02,29,0.70
2017,10,18,02,30,0.10
2017,10,18,02,31,1.40
2017,10,18,02,32,0.00
2017,10,18,02,33,0.00
2017,10,18,02,34,0.00
2017,10,18,02,35,0.00
2017,10,18,02,36,0.00
2017,10,18,02,37,0.00
2017,10,18,02,38,0.00
2017,10,18,02,39,0.00
2017,10,18,02,40,1.50
2017,10,18,02,41,1.20
2017,10,18,02,42,0.00
2017,10,18,02,43,0.00
2017,10,18,02,44,0.00
2017,10,18,02,45,0.00
2017,10,18,02,46,0.00
2017,10,18,02,47,0.00
2017,10,18,02,48,0.00
2017,10,18,02,49,0.00
2017,10,18,02,50,0.00
2017,10,18,02,51,0.00
2017,10,18,02,52,0.00
2017,10,18,02,53,0.00
2017,10,18,02,54,0.00
2017,10,18,02,55,0.00
2017,10,18,02,56,0.00
2017,10,18,02,57,0.00
2017,10,18,02,58,0.00
2017,10,18,02,59,0.00
2017,10,18,03,00,0.00
2017,10,18,03,01,0.00
2017,10,18,03,02,0.00
2017,10,18,03,03,0.00
2017,10,18,03,04,0.00
2017,10,18,03,05,0.00
2017,10,18,03,06,0.00
2017,10,18,03,07,0.00
2017,10,18,03,08,0.00
2017,10,18,03,09,0.00
2017,10,18,03,10,0.00
2017,10,18,03,11,0.00
2017,10,18,03,12,0.00
2017,10,18,03,13,0.00
2017,10,18,03,14,0.00
2017,10,18,03,15,0.00
2017,10,18,03,16,0.00
2017,10,18,03,17,0.00
2017,10,18,03,18,0.00
2017,10,18,03,19,0.00
2017,10,18,03,20,0.00
2017,10,18,03,21,0.00
2017,10,18,03,22,0.00
2017,10,18,03,23,0.00
2017,10,18,03,24,0.00
2017,10,18,03,25,0.00
2017,10,18,03,26,0.00
2017,10,18,03,27,0.00
2017,10,18,03,28,0.00
2017,10,18,03,29,0.00
2017,10,18,03,30,0.00
2017,10,18,03,31,0.00
2017,10,18,03,32,0.00
2017,10,18,03,33,0.00
2017,10,18,03,34,0.00
2017,10,18,03,35,0.00
2017,10,18,03,36,0.00
2017,10,18,03,37,0.00
2017,10,18,03,38,0.00
2017,10,18,03,39,0.00
2017,10,18,03,40,0.00
2017,10,18,03,41,0.00
2017,10,18,03,42,0.00
2017,10,18,03,43,0.00
2017,10,18,03,44,0.00
2017,10,18,03,45,0.00
2017,10,18,03,46,0.00
2017,10,18,03,47,0.00
2017,10,18,03,48,0.00
2017,10,18,03,49,0.00
2017,10,18,03,50,0.00
2017,10,18,03,51,0.00
2017,10,18,03,52,0.00
2017,10,18,03,53,0.00
2017,10,18,03,54,0.00
2017,10,18,03,55,0.00
2017,10,18,03,56,0.00
2017,10,18,03,57,0.00
2017,10,18,03,58,0.00
2017,10,18,03,59,0.00
2017,10,18,04,00,0.00
2017,10,18,04,01,0.00
2017,10,18,04,02,1.70
2017,10,18,04,03,1.60
2017,10,18,04,04,0.00
2017,10,18,04,05,0.00
2017,10,18,04,06,0.10
2017,10,18,04,07,0.00
2017,10,18,04,08,0.00
2017,10,18,04,09,0.00
2017,10,18,04,10,0.00
2017,10,18,04,11,0.00
2017,10,18,04,12,0.00
2017,10,18,04,13,0.00
2017,10,18,04,14,0.50
2017,10,18,04,15,0.80
2017,10,18,04,16,0.00
2017,10,18,04,17,0.00
2017,10,18,04,18,0.00
2017,10,18,04,19,0.00
2017,10,18,04,20,0.00
2017,10,18,04,21,0.60
2017,10,18,04,22,0.80
2017,10,18,04,23,1.10
2017,10,18,04,24,2.20
2017,10,18,04,25,0.00
2017,10,18,04,26,2.10
2017,10,18,04,27,2.20
2017,10,18,04,28,3.70
2017,10,18,04,29,4.10
2017,10,18,04,30,2.50
2017,10,18,04,31,4.70
2017,10,18,04,32,3.80
2017,10,18,04,33,2.60
2017,10,18,04,34,3.00
2017,10,18,04,35,2.60
2017,10,18,04,36,0.40
2017,10,18,04,37,1.40
2017,10,18,04,38,0.60
2017,10,18,04,39,0.00
2017,10,18,04,40,2.70
2017,10,18,04,41,0.70
2017,10,18,04,42,0.00
2017,10,18,04,43,0.00
2017,10,18,04,44,1.50
2017,10,18,04,45,2.10
2017,10,18,04,46,1.70
2017,10,18,04,47,0.20
2017,10,18,04,48,0.30
2017,10,18,04,49,1.40
2017,10,18,04,50,3.50
2017,10,18,04,51,3.70
2017,10,18,04,52,0.90
2017,10,18,04,53,1.70
2017,10,18,04,54,1.80
2017,10,18,04,55,1.90
2017,10,18,04,56,0.00
2017,10,18,04,57,1.50
2017,10,18,04,58,0.00
2017,10,18,04,59,2.30
2017,10,18,05,00,0.00
2017,10,18,05,01,0.70
2017,10,18,05,02,0.00
2017,10,18,05,03,3.00
2017,10,18,05,04,1.50
2017,10,18,05,05,2.00
2017,10,18,05,06,1.30
2017,10,18,05,07,4.00
2017,10,18,05,08,4.00
2017,10,18,05,09,3.40
2017,10,18,05,10,4.20
2017,10,18,05,11,2.40
2017,10,18,05,12,1.90
2017,10,18,05,13,3.60
2017,10,18,05,14,1.10
2017,10,18,05,15,0.00
2017,10,18,05,16,0.20
2017,10,18,05,17,0.10
2017,10,18,05,18,2.30
2017,10,18,05,19,2.10
2017,10,18,05,20,3.90
2017,10,18,05,21,2.80
2017,10,18,05,22,2.10
2017,10,18,05,23,3.50
2017,10,18,05,24,4.50
2017,10,18,05,25,7.40
2017,10,18,05,26,5.00
2017,10,18,05,27,4.80
2017,10,18,05,28,1.50
2017,10,18,05,29,3.40
2017,10,18,05,30,2.90
2017,10,18,05,31,1.80
2017,10,18,05,32,6.40
2017,10,18,05,33,4.70
2017,10,18,05,34,5.20
2017,10,18,05,35,8.10
2017,10,18,05,36,7.60
2017,10,18,05,37,10.60
2017,10,18,05,38,6.20
2017,10,18,05,39,5.80
2017,10,18,05,40,3.60
2017,10,18,05,41,5.40
2017,10,18,05,42,4.50
2017,10,18,05,43,5.50
2017,10,18,05,44,5.70
2017,10,18,05,45,5.70
2017,10,18,05,46,3.60
2017,10,18,05,47,7.30
2017,10,18,05,48,6.40
2017,10,18,05,49,6.40
2017,10,18,05,50,5.00
2017,10,18,05,51,4.90
2017,10,18,05,52,3.30
2017,10,18,05,53,4.10
2017,10,18,05,54,4.80
2017,10,18,05,55,5.60
2017,10,18,05,56,7.50
2017,10,18,05,57,8.40
2017,10,18,05,58,9.50
2017,10,18,05,59,4.20
2017,10,18,06,00,4.00
2017,10,18,06,01,4.40
2017,10,18,06,02,5.50
2017,10,18,06,03,6.70
2017,10,18,06,04,4.00
2017,10,18,06,05,6.00
2017,10,18,06,06,5.70
2017,10,18,06,07,9.70
2017,10,18,06,08,4.20
2017,10,18,06,09,6.40
2017,10,18,06,10,4.90
2017,10,18,06,11,8.10
2017,10,18,06,12,6.70
2017,10,18,06,13,7.10
2017,10,18,06,14,3.80
2017,10,18,06,15,4.30
2017,10,18,06,16,3.80
2017,10,18,06,17,4.70
2017,10,18,06,18,6.40
2017,10,18,06,19,3.40
2017,10,18,06,20,7.10
2017,10,18,06,21,6.00
2017,10,18,06,22,4.90
2017,10,18,06,23,1.00
2017,10,18,06,24,2.70
2017,10,18,06,25,1.70
2017,10,18,06,26,3.80
2017,10,18,06,27,3.90
2017,10,18,06,28,5.80
2017,10,18,06,29,4.90
2017,10,18,06,30,6.40
2017,10,18,06,31,7.30
2017,10,18,06,32,4.60
2017,10,18,06,33,5.70
2017,10,18,06,34,4.10
2017,10,18,06,35,3.70
2017,10,18,06,36,2.50
2017,10,18,06,37,4.70
2017,10,18,06,38,3.60
2017,10,18,06,39,5.80
2017,10,18,06,40,5.80
2017,10,18,06,41,5.10
2017,10,18,06,42,6.30
2017,10,18,06,43,5.60
2017,10,18,06,44,7.40
2017,10,18,06,45,6.20
2017,10,18,06,46,6.00
2017,10,18,06,47,2.70
2017,10,18,06,48,2.80
2017,10,18,06,49,2.80
2017,10,18,06,50,3.70
2017,10,18,06,51,4.50
2017,10,18,06,52,4.90
2017,10,18,06,53,3.60
2017,10,18,06,54,5.00
2017,10,18,06,55,7.20
2017,10,18,06,56,6.70
2017,10,18,06,57,5.60
2017,10,18,06,58,1.90
2017,10,18,06,59,2.80
2017,10,18,07,00,0.40
2017,10,18,07,01,2.70
2017,10,18,07,02,2.70
2017,10,18,07,03,1.90
2017,10,18,07,04,2.30
2017,10,18,07,05,3.90
2017,10,18,07,06,2.20
2017,10,18,07,07,3.50
2017,10,18,07,08,3.80
2017,10,18,07,09,4.70
2017,10,18,07,10,4.00
2017,10,18,07,11,2.60
2017,10,18,07,12,2.20
2017,10,18,07,13,1.00
2017,10,18,07,14,0.00
2017,10,18,07,15,0.00
2017,10,18,07,16,0.00
2017,10,18,07,17,1.50
2017,10,18,07,18,2.50
2017,10,18,07,19,3.50
2017,10,18,07,20,3.90
2017,10,18,07,21,0.70
2017,10,18,07,22,1.30
2017,10,18,07,23,1.80
2017,10,18,07,24,2.50
2017,10,18,07,25,0.40
2017,10,18,07,26,1.10
2017,10,18,07,27,4.10
2017,10,18,07,28,2.00
2017,10,18,07,29,3.90
2017,10,18,07,30,4.40
2017,10,18,07,31,4.00
2017,10,18,07,32,2.30
2017,10,18,07,33,1.10
2017,10,18,07,34,0.00
2017,10,18,07,35,0.00
2017,10,18,07,36,0.00
2017,10,18,07,37,0.00
2017,10,18,07,38,0.00
2017,10,18,07,39,0.00
2017,10,18,07,40,0.00
2017,10,18,07,41,0.00
2017,10,18,07,42,0.00
2017,10,18,07,43,0.00
2017,10,18,07,44,0.00
2017,10,18,07,45,0.70
2017,10,18,07,46,0.20
2017,10,18,07,47,1.40
2017,10,18,07,48,0.30
2017,10,18,07,49,0.60
2017,10,18,07,50,1.80
2017,10,18,07,51,2.50
2017,10,18,07,52,2.50
2017,10,18,07,53,1.10
2017,10,18,07,54,2.40
2017,10,18,07,55,0.20
2017,10,18,07,56,1.10
2017,10,18,07,57,1.10
2017,10,18,07,58,3.40
2017,10,18,07,59,3.80
2017,10,18,08,00,2.10
2017,10,18,08,01,4.40
2017,10,18,08,02,5.90
2017,10,18,08,03,6.10
2017,10,18,08,04,6.90
2017,10,18,08,05,2.70
2017,10,18,08,06,0.10
2017,10,18,08,07,1.10
2017,10,18,08,08,2.00
2017,10,18,08,09,2.40
2017,10,18,08,10,3.70
2017,10,18,08,11,5.10
2017,10,18,08,12,5.60
2017,10,18,08,13,5.30
2017,10,18,08,14,2.10
2017,10,18,08,15,2.10
2017,10,18,08,16,3.90
2017,10,18,08,17,2.90
2017,10,18,08,18,2.20
2017,10,18,08,19,1.20
2017,10,18,08,20,0.10
2017,10,18,08,21,0.00
2017,10,18,08,22,0.00
2017,10,18,08,23,0.00
2017,10,18,08,24,0.00
2017,10,18,08,25,0.30
2017,10,18,08,26,0.20
2017,10,18,08,27,0.00
2017,10,18,08,28,0.00
2017,10,18,08,29,1.60
2017,10,18,08,30,3.10
2017,10,18,08,31,0.00
2017,10,18,08,32,0.00
2017,10,18,08,33,0.00
2017,10,18,08,34,0.40
2017,10,18,08,35,4.60
2017,10,18,08,36,2.30
2017,10,18,08,37,2.70
2017,10,18,08,38,0.50
2017,10,18,08,39,1.20
2017,10,18,08,40,0.30
2017,10,18,08,41,0.10
2017,10,18,08,42,2.20
2017,10,18,08,43,2.60
2017,10,18,08,44,2.40
2017,10,18,08,45,3.50
2017,10,18,08,46,0.90
2017,10,18,08,47,0.00
2017,10,18,08,48,0.40
2017,10,18,08,49,1.20
2017,10,18,08,50,0.00
2017,10,18,08,51,1.90
2017,10,18,08,52,1.70
2017,10,18,08,53,2.10
2017,10,18,08,54,3.00
2017,10,18,08,55,1.70
2017,10,18,08,56,3.20
2017,10,18,08,57,2.70
2017,10,18,08,58,2.70
2017,10,18,08,59,0.70
2017,10,18,09,00,0.50
2017,10,18,09,01,0.50
2017,10,18,09,02,1.00
2017,10,18,09,03,3.10
2017,10,18,09,04,2.90
2017,10,18,09,05,3.90
2017,10,18,09,06,3.60
2017,10,18,09,07,3.00
2017,10,18,09,08,0.20
2017,10,18,09,09,1.40
2017,10,18,09,10,0.80
2017,10,18,09,11,5.20
2017,10,18,09,12,2.70
2017,10,18,09,13,0.70
2017,10,18,09,14,0.30
2017,10,18,09,15,1.10
2017,10,18,09,16,2.80
2017,10,18,09,17,8.00
2017,10,18,09,18,10.10
2017,10,18,09,19,6.40
2017,10,18,09,20,5.20
2017,10,18,09,21,7.30
2017,10,18,09,22,6.30
2017,10,18,09,23,5.30
2017,10,18,09,24,5.90
2017,10,18,09,25,1.00
2017,10,18,09,26,1.70
2017,10,18,09,27,4.70
2017,10,18,09,28,7.30
2017,10,18,09,29,5.80
2017,10,18,09,30,6.60
2017,10,18,09,31,3.90
2017,10,18,09,32,9.80
2017,10,18,09,33,8.50
2017,10,18,09,34,8.00
2017,10,18,09,35,13.10
2017,10,18,09,36,9.30
2017,10,18,09,37,9.00
2017,10,18,09,38,7.50
2017,10,18,09,39,4.30
2017,10,18,09,40,5.10
2017,10,18,09,41,3.00
2017,10,18,09,42,4.60
2017,10,18,09,43,4.70
2017,10,18,09,44,4.50
2017,10,18,09,45,3.40
2017,10,18,09,46,9.50
2017,10,18,09,47,5.80
2017,10,18,09,48,0.80
2017,10,18,09,49,3.70
2017,10,18,09,50,7.30
2017,10,18,09,51,7.00
2017,10,18,09,52,6.30
2017,10,18,09,53,7.60
2017,10,18,09,54,7.50
2017,10,18,09,55,8.10
2017,10,18,09,56,7.70
2017,10,18,09,57,6.80
2017,10,18,09,58,5.90
2017,10,18,09,59,4.20
2017,10,18,10,00,5.70
2017,10,18,10,01,7.70
2017,10,18,10,02,4.90
2017,10,18,10,03,4.70
2017,10,18,10,04,6.60
2017,10,18,10,05,4.70
2017,10,18,10,06,6.00
2017,10,18,10,07,9.50
2017,10,18,10,08,5.80
2017,10,18,10,09,1.20
2017,10,18,10,10,4.10
2017,10,18,10,11,7.70
2017,10,18,10,12,5.10
2017,10,18,10,13,5.60
2017,10,18,10,14,3.50
2017,10,18,10,15,7.40
2017,10,18,10,16,6.80
2017,10,18,10,17,6.80
2017,10,18,10,18,10.00
2017,10,18,10,19,14.30
2017,10,18,10,20,9.70
2017,10,18,10,21,10.80
2017,10,18,10,22,9.90
2017,10,18,10,23,10.80
2017,10,18,10,24,4.50
2017,10,18,10,25,9.70
2017,10,18,10,26,15.60
2017,10,18,10,27,13.80
2017,10,18,10,28,7.70
2017,10,18,10,29,7.20
2017,10,18,10,30,19.20
2017,10,18,10,31,15.90
2017,10,18,10,32,13.30
2017,10,18,10,33,7.40
2017,10,18,10,34,9.70
2017,10,18,10,35,5.70
2017,10,18,10,36,6.80
2017,10,18,10,37,6.80
2017,10,18,10,38,8.50
2017,10,18,10,39,5.80
2017,10,18,10,40,13.20
2017,10,18,10,41,14.70
2017,10,18,10,42,9.30
2017,10,18,10,43,10.50
2017,10,18,10,44,7.00
2017,10,18,10,45,9.20
2017,10,18,10,46,5.10
2017,10,18,10,47,6.00
2017,10,18,10,48,4.80
2017,10,18,10,49,5.70
2017,10,18,10,50,4.90
2017,10,18,10,51,6.80
2017,10,18,10,52,6.40
2017,10,18,10,53,9.50
2017,10,18,10,54,11.00
2017,10,18,10,55,3.90
2017,10,18,10,56,3.50
2017,10,18,10,57,6.90
2017,10,18,11,01,12.30
2017,10,18,11,02,8.40
2017,10,18,11,03,10.70
2017,10,18,11,04,8.40
2017,10,18,11,05,6.00
2017,10,18,11,06,6.60
2017,10,18,11,07,7.30
2017,10,18,11,08,12.00
2017,10,18,11,09,15.70
2017,10,18,11,10,16.30
2017,10,18,11,11,9.80
2017,10,18,11,12,7.30
2017,10,18,11,13,12.10
2017,10,18,11,14,10.00
2017,10,18,11,15,8.50
2017,10,18,11,16,8.00
2017,10,18,11,17,6.80
2017,10,18,11,18,9.10
2017,10,18,11,19,10.40
2017,10,18,11,20,8.10
2017,10,18,11,21,14.00
2017,10,18,11,22,11.00
2017,10,18,11,23,12.30
2017,10,18,11,24,11.40
2017,10,18,11,25,11.20
2017,10,18,11,26,12.90
2017,10,18,11,27,12.60
2017,10,18,11,28,7.10
2017,10,18,11,29,11.90
2017,10,18,11,30,12.60
2017,10,18,11,31,12.60
2017,10,18,11,32,12.50
2017,10,18,11,33,13.00
2017,10,18,11,34,12.20
2017,10,18,11,35,12.60
2017,10,18,11,36,10.80
2017,10,18,11,37,9.20
2017,10,18,11,38,8.40
2017,10,18,11,39,10.10
2017,10,18,11,40,7.70
2017,10,18,11,41,6.60
2017,10,18,11,42,14.40
2017,10,18,11,43,8.60
2017,10,18,11,44,7.00
2017,10,18,11,45,9.90
2017,10,18,11,46,6.70
2017,10,18,11,47,15.40
2017,10,18,11,48,7.40
2017,10,18,11,49,6.80
2017,10,18,11,50,9.40
2017,10,18,11,51,8.00
2017,10,18,11,52,8.10
2017,10,18,11,53,6.00
2017,10,18,11,54,7.50
2017,10,18,11,55,16.10
2017,10,18,11,56,14.20
2017,10,18,11,57,8.00
2017,10,18,11,58,16.10
2017,10,18,11,59,10.00
2017,10,18,12,00,10.00
2017,10,18,12,01,7.60
2017,10,18,12,02,8.10
2017,10,18,12,03,8.80
2017,10,18,12,04,11.70
2017,10,18,12,05,13.20
2017,10,18,12,06,11.50
2017,10,18,12,07,13.30
2017,10,18,12,08,8.50
2017,10,18,12,09,11.70
2017,10,18,12,10,9.50
2017,10,18,12,11,11.00
2017,10,18,12,12,11.10
2017,10,18,12,13,9.60
2017,10,18,12,14,7.70
2017,10,18,12,15,6.40
2017,10,18,12,16,8.50
2017,10,18,12,17,9.00
2017,10,18,12,18,6.10
2017,10,18,12,19,5.30
2017,10,18,12,20,8.00
2017,10,18,12,21,6.80
2017,10,18,12,22,8.10
2017,10,18,12,23,11.00
2017,10,18,12,24,10.90
2017,10,18,12,25,10.50
2017,10,18,12,26,9.90
2017,10,18,12,27,6.90
2017,10,18,12,28,11.50
2017,10,18,12,29,8.90
2017,10,18,12,30,12.70
2017,10,18,12,31,10.40
2017,10,18,12,32,13.50
2017,10,18,12,33,13.40
2017,10,18,12,34,7.00
2017,10,18,12,35,10.00
2017,10,18,12,36,8.00
2017,10,18,12,37,10.10
2017,10,18,12,38,15.90
2017,10,18,12,39,7.30
2017,10,18,12,40,12.70
2017,10,18,12,41,8.70
2017,10,18,12,42,5.30
2017,10,18,12,43,12.30
2017,10,18,12,44,8.00
2017,10,18,12,45,9.30
2017,10,18,12,46,12.20
2017,10,18,12,47,14.30
2017,10,18,12,48,5.90
2017,10,18,12,49,8.40
2017,10,18,12,50,10.00
2017,10,18,12,51,7.60
2017,10,18,12,52,15.40
2017,10,18,12,53,14.60
2017,10,18,12,54,8.00
2017,10,18,12,55,11.60
2017,10,18,12,56,8.90
2017,10,18,12,57,7.30
2017,10,18,12,58,5.00
2017,10,18,12,59,7.80
2017,10,18,13,00,12.50
2017,10,18,13,01,12.60
2017,10,18,13,02,11.30
2017,10,18,13,03,4.40
2017,10,18,13,04,15.60
2017,10,18,13,05,9.30
2017,10,18,13,06,10.40
2017,10,18,13,07,5.70
2017,10,18,13,08,6.60
2017,10,18,13,09,12.90
2017,10,18,13,10,8.40
2017,10,18,13,11,6.80
2017,10,18,13,12,7.50
2017,10,18,13,13,16.20
2017,10,18,13,14,9.70
2017,10,18,13,15,8.70
2017,10,18,13,16,5.70
2017,10,18,13,17,9.60
2017,10,18,13,18,11.00
2017,10,18,13,19,6.40
2017,10,18,13,20,9.00
2017,10,18,13,21,9.30
2017,10,18,13,22,9.00
2017,10,18,13,23,6.70
2017,10,18,13,24,7.10
2017,10,18,13,25,12.50
2017,10,18,13,26,7.10
2017,10,18,13,27,8.90
2017,10,18,13,28,11.70
2017,10,18,13,29,10.90
2017,10,18,13,30,10.50
2017,10,18,13,31,6.60
2017,10,18,13,32,4.90
2017,10,18,13,33,6.80
2017,10,18,13,34,4.20
2017,10,18,13,35,6.00
2017,10,18,13,36,6.70
2017,10,18,13,37,3.40
2017,10,18,13,38,8.00
2017,10,18,13,39,7.20
2017,10,18,13,40,7.90
2017,10,18,13,41,5.30
2017,10,18,13,42,8.80
2017,10,18,13,43,8.80
2017,10,18,13,44,8.90
2017,10,18,13,45,9.40
2017,10,18,13,46,5.10
2017,10,18,13,47,3.50
2017,10,18,13,48,0.30
2017,10,18,13,49,4.70
2017,10,18,13,50,5.30
2017,10,18,13,51,5.40
2017,10,18,13,52,7.50
2017,10,18,13,53,8.40
2017,10,18,13,54,7.00
2017,10,18,13,55,5.60
2017,10,18,13,56,11.80
2017,10,18,13,57,7.20
2017,10,18,13,58,7.90
2017,10,18,13,59,5.90
2017,10,18,14,00,7.60
2017,10,18,14,01,10.00
2017,10,18,14,02,6.90
2017,10,18,14,03,7.70
2017,10,18,14,04,11.40
2017,10,18,14,05,12.30
2017,10,18,14,06,8.10
2017,10,18,14,07,5.70
2017,10,18,14,08,7.40
2017,10,18,14,09,13.30
2017,10,18,14,10,11.80
2017,10,18,14,11,10.30
2017,10,18,14,12,9.30
2017,10,18,14,13,10.80
2017,10,18,14,14,8.50
2017,10,18,14,15,7.30
2017,10,18,14,16,4.70
2017,10,18,14,17,4.60
2017,10,18,14,18,6.90
2017,10,18,14,19,4.60
2017,10,18,14,20,3.60
2017,10,18,14,21,4.50
2017,10,18,14,22,7.80
2017,10,18,14,23,8.30
2017,10,18,14,24,7.90
2017,10,18,14,25,6.00
2017,10,18,14,26,8.40
2017,10,18,14,27,12.80
2017,10,18,14,28,5.70
2017,10,18,14,29,5.10
2017,10,18,14,30,6.20
2017,10,18,14,31,5.10
2017,10,18,14,32,5.60
2017,10,18,14,33,8.50
2017,10,18,14,34,4.40
2017,10,18,14,35,8.20
2017,10,18,14,36,5.80
2017,10,18,14,37,8.20
2017,10,18,14,38,7.00
2017,10,18,14,39,6.80
2017,10,18,14,40,13.50
2017,10,18,14,41,7.20
2017,10,18,14,42,8.00
2017,10,18,14,43,8.90
2017,10,18,14,44,5.90
2017,10,18,14,45,3.30
2017,10,18,14,46,10.10
2017,10,18,14,47,6.40
2017,10,18,14,48,7.10
2017,10,18,14,49,4.30
2017,10,18,14,50,2.50
2017,10,18,14,51,9.80
2017,10,18,14,52,8.40
2017,10,18,14,53,7.10
2017,10,18,14,54,2.00
2017,10,18,14,55,4.10
2017,10,18,14,56,4.40
2017,10,18,14,57,2.70
2017,10,18,14,58,2.30
2017,10,18,14,59,3.90
2017,10,18,15,00,1.80
2017,10,18,15,01,0.10
2017,10,18,15,02,0.00
2017,10,18,15,03,3.50
2017,10,18,15,04,4.70
2017,10,18,15,05,4.40
2017,10,18,15,06,6.40
2017,10,18,15,07,5.30
2017,10,18,15,08,2.70
2017,10,18,15,09,3.40
2017,10,18,15,10,4.70
2017,10,18,15,11,2.90
2017,10,18,15,12,5.70
2017,10,18,15,13,9.40
2017,10,18,15,14,2.30
2017,10,18,15,15,2.80
2017,10,18,15,16,2.10
2017,10,18,15,17,4.50
2017,10,18,15,18,1.60
2017,10,18,15,19,5.30
2017,10,18,15,20,3.10
2017,10,18,15,21,2.10
2017,10,18,15,22,0.90
2017,10,18,15,23,2.60
2017,10,18,15,24,3.80
2017,10,18,15,25,2.10
2017,10,18,15,26,1.40
2017,10,18,15,27,6.30
2017,10,18,15,28,6.40
2017,10,18,15,29,2.10
2017,10,18,15,30,4.30
2017,10,18,15,31,2.60
2017,10,18,15,32,3.20
2017,10,18,15,33,4.20
2017,10,18,15,34,7.10
2017,10,18,15,35,3.90
2017,10,18,15,36,4.40
2017,10,18,15,37,5.20
2017,10,18,15,38,1.80
2017,10,18,15,39,3.60
2017,10,18,15,40,5.10
2017,10,18,15,41,7.70
2017,10,18,15,42,13.40
2017,10,18,15,43,8.20
2017,10,18,15,44,8.30
2017,10,18,15,45,8.70
2017,10,18,15,46,9.20
2017,10,18,15,47,8.70
2017,10,18,15,48,9.10
2017,10,18,15,49,9.70
2017,10,18,15,50,12.20
2017,10,18,15,51,8.50
2017,10,18,15,52,7.70
2017,10,18,15,53,6.20
2017,10,18,15,54,8.10
2017,10,18,15,55,8.00
2017,10,18,15,56,12.60
2017,10,18,15,57,14.80
2017,10,18,15,58,5.60
2017,10,18,15,59,6.20
2017,10,18,16,00,3.70
2017,10,18,16,01,7.40
2017,10,18,16,02,7.70
2017,10,18,16,03,6.60
2017,10,18,16,04,6.40
2017,10,18,16,05,7.60
2017,10,18,16,06,6.40
2017,10,18,16,07,3.90
2017,10,18,16,08,4.40
2017,10,18,16,09,7.60
2017,10,18,16,10,8.10
2017,10,18,16,11,8.30
2017,10,18,16,12,5.30
2017,10,18,16,13,2.10
2017,10,18,16,14,5.80
2017,10,18,16,15,6.10
2017,10,18,16,16,4.30
2017,10,18,16,17,4.10
2017,10,18,16,18,6.00
2017,10,18,16,19,7.10
2017,10,18,16,20,7.40
2017,10,18,16,21,4.60
2017,10,18,16,22,1.40
2017,10,18,16,23,2.70
2017,10,18,16,24,4.60
2017,10,18,16,25,1.30
2017,10,18,16,26,0.20
2017,10,18,16,27,0.00
2017,10,18,16,28,0.50
2017,10,18,16,29,2.60
2017,10,18,16,30,3.30
2017,10,18,16,31,2.60
2017,10,18,16,32,1.00
2017,10,18,16,33,1.90
2017,10,18,16,34,3.40
2017,10,18,16,35,0.70
2017,10,18,16,36,0.00
2017,10,18,16,37,0.00
2017,10,18,16,38,0.20
2017,10,18,16,39,2.30
2017,10,18,16,40,2.60
2017,10,18,16,41,3.30
2017,10,18,16,42,6.40
2017,10,18,16,43,4.10
2017,10,18,16,44,3.90
2017,10,18,16,45,4.90
2017,10,18,16,46,4.60
2017,10,18,16,47,0.90
2017,10,18,16,48,3.10
2017,10,18,16,49,1.60
2017,10,18,16,50,1.40
2017,10,18,16,51,0.00
2017,10,18,16,52,0.40
2017,10,18,16,53,2.60
2017,10,18,16,54,0.20
2017,10,18,16,55,0.00
2017,10,18,16,56,0.70
2017,10,18,16,57,5.00
2017,10,18,16,58,2.80
2017,10,18,16,59,1.20
2017,10,18,17,00,1.00
2017,10,18,17,01,0.40
2017,10,18,17,02,2.90
2017,10,18,17,03,5.30
2017,10,18,17,04,1.20
2017,10,18,17,05,4.40
2017,10,18,17,06,1.40
2017,10,18,17,07,1.30
2017,10,18,17,08,3.10
2017,10,18,17,09,3.50
2017,10,18,17,10,4.70
2017,10,18,17,11,3.40
2017,10,18,17,12,3.30
2017,10,18,17,13,1.20
2017,10,18,17,14,0.60
2017,10,18,17,15,0.00
2017,10,18,17,16,1.50
2017,10,18,17,17,3.60
2017,10,18,17,18,3.80
2017,10,18,17,19,2.90
2017,10,18,17,20,4.30
2017,10,18,17,21,2.80
2017,10,18,17,22,2.50
2017,10,18,17,23,0.90
2017,10,18,17,24,0.00
2017,10,18,17,25,0.00
2017,10,18,17,26,0.00
2017,10,18,17,27,0.00
2017,10,18,17,28,0.00
2017,10,18,17,29,0.00
2017,10,18,17,30,0.00
2017,10,18,17,31,0.00
2017,10,18,17,32,0.00
2017,10,18,17,33,0.00
2017,10,18,17,34,2.40
2017,10,18,17,35,1.90
2017,10,18,17,36,0.10
2017,10,18,17,37,0.00
2017,10,18,17,38,1.50
2017,10,18,17,39,3.40
2017,10,18,17,40,3.50
2017,10,18,17,41,1.40
2017,10,18,17,42,2.00
2017,10,18,17,43,0.30
2017,10,18,17,44,1.00
2017,10,18,17,45,1.00
2017,10,18,17,46,2.10
2017,10,18,17,47,0.00
2017,10,18,17,48,0.00
2017,10,18,17,49,0.00
2017,10,18,17,50,0.00
2017,10,18,17,51,1.60
2017,10,18,17,52,4.80
2017,10,18,17,53,4.40
2017,10,18,17,54,2.50
2017,10,18,17,55,0.20
2017,10,18,17,56,1.70
2017,10,18,17,57,1.20
2017,10,18,17,58,0.00
2017,10,18,17,59,0.00
2017,10,18,18,00,0.00
2017,10,18,18,01,0.10
2017,10,18,18,02,2.30
2017,10,18,18,03,3.10
2017,10,18,18,04,0.30
2017,10,18,18,05,0.00